Location: Bald Hill School (historical)
(38.1903°N, 89.1309°W)
Time: 15:16:40
(UTC+00:00)

Daily predictions for brighter satellites

Satellite Brightness Start Highest point End
(mag) Time Altitude Azimuth Time Altitude Azimuth Time Altitude Azimuth
USA 215 3.7 12:00:53 10° ESE 12:07:15 58° NE 12:13:37 10° NW
SJ 16-02 2.4 12:04:05 10° WSW 12:07:37 23° WNW 12:11:09 10° N
CZ-4B R/B 2.6 12:05:20 10° N 12:08:52 61° WNW 12:12:29 10° SSW
OAO 2 Rocket 4.1 12:06:10 10° WSW 12:11:11 51° SSE 12:16:08 10° E
Cosmos 1607 4.2 12:06:39 10° NNW 12:12:52 70° ENE 12:18:58 10° SE
Cosmos 1666 Rocket 4.3 12:10:04 10° S 12:14:26 58° E 12:18:51 10° NNE
DELTA 2 R/B (1) 3.6 12:12:08 11° WNW 12:17:26 88° S 12:22:59 10° ESE
Cosmos 2228 Rocket 3.2 12:16:33 10° NNW 12:21:02 62° W 12:25:30 10° S
Meteor 1-27 Rocket 4.3 12:16:05 10° NNW 12:21:14 37° W 12:26:29 10° SSW
Meteor 1-31 Rocket 4.5 12:20:53 10° NW 12:22:51 14° WNW 12:24:48 10° W
Lacrosse 4 Rocket 3.9 12:24:13 10° N 12:27:25 19° NE 12:30:37 10° E
Sich 1 3.3 12:26:32 10° SSW 12:30:38 45° W 12:34:45 10° N
SL-4 R/B 2.6 12:29:35 10° W 12:32:45 30° NNW 12:36:06 10° NE
BREEZE M DEB (TANK) 4.0 12:31:40 10° NNW 12:33:10 14° NNE 12:34:27 10° NE
CZ-4B R/B 1.8 12:30:16 10° SSE 12:33:32 64° ENE 12:36:46 10° N
NOAA 12 4.3 12:29:04 10° N 12:34:06 47° WNW 12:39:04 10° SW
CZ-2D R/B 3.4 12:30:44 10° NNE 12:34:32 78° ESE 12:38:18 10° S
Cosmos 2297 Rocket 2.7 12:29:04 10° NNW 12:34:43 65° ENE 12:40:19 10° SSE
Cosmos 1939 Rocket 3.2 12:31:50 10° N 12:35:31 41° WNW 12:39:09 10° SW
Cosmos 44 3.8 12:30:33 10° SSW 12:35:56 79° ESE 12:41:13 10° NNE
COSMOS 2455 3.7 22:59:38 10° SW 23:05:28 52° WNW 23:11:22 10° NNE
Cosmos 1833 Rocket 4.4 23:01:26 10° WSW 23:06:20 30° WNW 23:11:16 10° N
Cosmos 921 Rocket 3.7 23:04:12 10° SSE 23:07:56 32° E 23:11:43 10° NE
CZ-4B DEB 4.5 23:07:27 10° SE 23:12:39 45° ENE 23:17:52 10° N
Cosmos 2278 3.9 23:07:07 10° NNW 23:12:41 51° ENE 23:18:11 10° SE
Cosmos 44 Rocket 4.1 23:09:05 10° N 23:13:22 30° NE 23:17:31 10° ESE
CZ-2D R/B 4.1 23:11:16 10° SE 23:14:34 28° ENE 23:17:52 10° NNE
SL-24 R/B - RUBIN 2 3.5 23:13:06 10° NNW 23:17:32 89° WSW 23:21:50 10° SSE
CZ-2C R/B 3.4 23:14:30 10° NE 23:19:01 30° E 23:23:31 10° SSE
Cosmos 1939 Rocket 2.8 23:15:26 10° SSE 23:19:31 81° ENE 23:23:36 10° N
ISS -3.8 23:16:11 10° NW 23:19:34 78° NE 23:22:56 10° SE
Cosmos 1814 Rocket 4.2 23:15:20 10° SSW 23:20:33 74° WNW 23:25:45 10° NNE
Cosmos 1782 3.9 23:19:25 10° SSW 23:23:16 48° W 23:27:08 10° N
Cosmos 1666 2.7 23:21:33 10° N 23:25:10 51° E 23:28:47 10° SSE
Cosmos 1151 Rocket 3.0 23:21:51 10° S 23:26:11 84° E 23:30:33 10° N
Cosmos 1570 Rocket 4.2 23:23:00 10° SSW 23:28:14 74° WNW 23:33:28 10° NNE
Meteor 1-14 Rocket 4.3 23:22:21 10° N 23:28:14 68° E 23:34:10 10° SSE
CZ-2C R/B 1.9 23:28:03 10° WSW 23:32:16 52° S 23:35:52 13° E
Cosmos 1633 Rocket 3.1 23:28:17 10° N 23:32:38 59° E 23:36:58 10° SSE
COSMO-SKYMED 1 3.2 23:29:09 10° NNE 23:33:09 36° E 23:37:08 10° SSE
Cosmos 1655 Rocket 4.5 23:28:36 10° N 23:34:30 38° ENE 23:40:18 10° SE
Aureole 3 Rocket 4.4 23:31:45 10° SE 23:35:18 24° E 23:39:50 10° NNE
APEX 3.0 23:32:07 10° SSW 23:36:08 69° ESE 23:38:59 13° NNE
Tiangong 2.3 23:34:14 10° SW 23:37:04 31° SSE 23:38:49 18° E
CZ-4B R/B 3.5 23:33:20 10° SE 23:38:20 40° ENE 23:43:16 10° N
Meteor 2-16 Rocket 4.4 23:32:33 10° N 23:38:42 76° E 23:44:49 10° SSE
Cosmos 2298 Rocket 4.4 23:34:51 10° N 23:39:51 40° ENE 23:44:50 10° SE
X-37B 0.7 23:38:22 10° WSW 23:41:12 53° NNW 23:42:42 23° NE
MOS 1-B 4.3 23:42:43 10° SSE 23:48:26 68° ENE 23:54:11 10° N
Meteor 1-27 Rocket 4.1 23:43:39 10° SSE 23:48:41 38° E 23:53:44 10° NNE
Lacrosse 5 rocket 1.6 23:45:12 10° NNW 23:49:01 43° NE 23:51:43 18° ESE
Meteor 2-6 Rocket 4.3 23:44:58 10° S 23:50:43 85° W 23:56:21 10° N
Meteor 2-15 Rocket 4.5 23:46:21 10° S 23:52:18 56° E 23:58:15 10° NNE
Cosmos 1544 3.4 23:50:49 10° N 23:54:16 41° E 23:57:42 10° SSE
Cosmos 1812 4.5 23:51:27 10° SW 23:54:57 33° WNW 23:58:28 10° NNW
SL-08 RB Rocket 4.5 23:51:00 10° SE 23:54:59 30° ENE 23:58:58 10° N
Cosmos 2360 Rocket 3.4 23:51:37 10° N 23:55:40 21° NE 23:55:40 21° NE
